Location: Newark
(44.9333°N, 0.5667°E)
Time: 22:27:58
(UTC+00:00)

UWE-3 - Pass Details

Date: 18 February 2020
Orbit: 585 x 683 km, 97.6° (Epoch: 05 April)

Event Time Altitude Azimuth Distance (km) Brightness Sun altitude
Rises 05:41:44 0° 10° (N) 3,014 ? -13.6°
Reaches altitude 10° 05:43:58 10° 9° (N) 2,108 ? -13.2°
Maximum altitude 05:48:34 75° 285° (WNW) 706 ? -12.4°
Drops below altitude 10° 05:53:13 10° 200° (SSW) 2,120 ? -11.6°
Sets 05:55:27 0° 199° (SSW) 3,032 ? -11.2°
